STARLINK-35447 (66589 NORAD) Tracking and Keplerian Element Data

This shows tracking and keplerian element data for the satellite.

Feedback or suggestion? Click here.




ElementValue
Catalog66589
NameSTARLINK-35447
Epoch Orbit567
Epoch Day354.00002315
Epoch Year2025
RAAN150.7032
Inclination42.9997
Eccentricity0.0001453
Argument of Perigee283.5937
Mean Anonmoly185.2289
Mean Motion15.40681269
Decay Rate0.0003995
L11 66589U 25270B 25354.00002315 .00039950 00000+0 95922-3 0 9995
L22 66589 42.9997 150.7032 0001453 283.5937 185.2289 15.40681269 5679



Live tracking and technical data element details for STARLINK-35447 (NORAD 66589). STARLINK-35447 can be tracked NOW for your location showing map with azimuth and elevation plus other details from your city location.







IsCatalogInMostPopularTable: catalog: 66589, numindb: 9
Update: records affected: 1



GetName: 66589 STARLINK-35447

Hit Count: updated at: Sun, 08 Feb 2026 08:03:29 GMT